Overview Statistics Trail Chart Weather Telemetry Raw packets
 

This is the latest recevied weather packets stored in our database for station/object DO1BDB-12. If no packets are shown the sender has not sent any weather packets the latest 10 day(s).

<< 306 307 308 309 310 311 312 >>
Time Temp. Humidity Pressure Rain* Wind** Luminosity Snow
1788185356 27.22° C 47% 100.7 hPa - - - -
1788185290 26.67° C 46% 100.7 hPa - - - -
1788185224 26.11° C 47% 100.7 hPa - - - -
1788185158 26.67° C 47% 100.8 hPa - - - -
1788185093 26.11° C 48% 100.7 hPa - - - -
1788185027 26.11° C 46% 100.7 hPa - - - -
1788184961 27.22° C 47% 100.8 hPa - - - -
1788184895 26.67° C 47% 100.8 hPa - - - -
1788184829 26.67° C 48% 100.8 hPa - - - -
1788184763 26.67° C 48% 100.8 hPa - - - -
1788184697 26.67° C 45% 100.8 hPa - - - -
1788184632 27.22° C 47% 100.8 hPa - - - -
1788184567 26.11° C 48% 100.8 hPa - - - -
1788184500 26.67° C 50% 100.8 hPa - - - -
1788184434 25.56° C 51% 100.8 hPa - - - -
1788184368 25.56° C 51% 100.8 hPa - - - -
1788184302 25.56° C 50% 100.8 hPa - - - -
1788184237 26.11° C 48% 100.8 hPa - - - -
1788184171 26.67° C 48% 100.8 hPa - - - -
1788184105 25.56° C 49% 100.8 hPa - - - -
1788184039 25° C 51% 100.8 hPa - - - -
1788183973 24.44° C 51% 100.8 hPa - - - -
1788183907 24.44° C 51% 100.8 hPa - - - -
1788183842 25.56° C 50% 100.8 hPa - - - -
1788183776 26.67° C 48% 100.8 hPa - - - -

* Rain since midnight (hover to see other rain measurements)
** Current wind speed in m/s (hover to see current wind gust speed)